This is the latest recevied weather packets stored in our database for station/object SP4IM-13. If no packets are shown the sender has not sent any weather packets the latest 10 day(s).
| Time | Temp. | Humidity | Pressure | Rain* | Wind** | Luminosity | Snow |
|---|---|---|---|---|---|---|---|
| 1778064002 | 25° C | 54% | 1003 hPa | - | - | - | - |
| 1778063402 | 24.44° C | 57% | 1003 hPa | - | - | - | - |
| 1778062802 | 23.89° C | 58% | 1003 hPa | - | - | - | - |
| 1778062202 | 23.33° C | 59% | 1003 hPa | - | - | - | - |
| 1778061602 | 22.78° C | 61% | 1003 hPa | - | - | - | - |
| 1778061002 | 22.22° C | 63% | 1004 hPa | - | - | - | - |
| 1778060402 | 21.67° C | 63% | 1004 hPa | - | - | - | - |
| 1778059803 | 21.67° C | 64% | 1004 hPa | - | - | - | - |
| 1778059203 | 21.11° C | 65% | 1004 hPa | - | - | - | - |
| 1778058602 | 21.11° C | 65% | 1004 hPa | - | - | - | - |
| 1778058003 | 21.11° C | 65% | 1004 hPa | - | - | - | - |
| 1778057402 | 21.11° C | 65% | 1004 hPa | - | - | - | - |
| 1778056802 | 20.56° C | 66% | 1004 hPa | - | - | - | - |
| 1778056203 | 20.56° C | 66% | 1004 hPa | - | - | - | - |
| 1778055605 | 20.56° C | 65% | 1004 hPa | - | - | - | - |
| 1778055002 | 19.44° C | 65% | 1004 hPa | - | - | - | - |
| 1778054402 | 18.33° C | 65% | 1004 hPa | - | - | - | - |
| 1778053804 | 16.67° C | 65% | 1004 hPa | - | - | - | - |
| 1778053212 | 16.11° C | 65% | 1004 hPa | - | - | - | - |
| 1778052603 | 16.11° C | 63% | 1004 hPa | - | - | - | - |
| 1778052003 | 16.11° C | 63% | 1004 hPa | - | - | - | - |
| 1778051405 | 15.56° C | 66% | 1004 hPa | - | - | - | - |
| 1778050805 | 15.56° C | 69% | 1004 hPa | - | - | - | - |
| 1778050203 | 15° C | 72% | 1004 hPa | - | - | - | - |
| 1778049605 | 14.44° C | 77% | 1005 hPa | - | - | - | - |
* Rain since midnight (hover to see other rain measurements)
** Current wind speed in m/s (hover to see current wind gust speed)